When you browse on this site, cookies collect data to enhance your experience and personalize the content and advertising you see.
Visit our Privacy Policy to learn more. By continuing to use the site, you agree to this use of cookies and data.
  • Em Portugal
  • Lista de países
  • Para 7 dias
  • Temperatura da água
  • Mapas de satélite
  • Mapa do tempo
  • Widgets de tempo
  • user-avatar
    Iniciar Sessão

    Previsão horária em Elbasan

    Hoje, 17 Janeiro, Quinta-feira

    Tempo Temperatura Precipitação Vento Pressão Humidade
    00:00 +2°C° 0 mm 1 m/s 739 mmHg 70%
    01:00 +2°C° 0 mm 1 m/s 739 mmHg 70%
    02:00 +2°C° 0 mm 1 m/s 739 mmHg 70%
    03:00 +2°C° 0 mm 1 m/s 739 mmHg 70%
    04:00 +2°C° 0 mm 1 m/s 739 mmHg 69%
    05:00 +2°C° 0 mm 1 m/s 739 mmHg 69%
    06:00 +2°C° 0 mm 1 m/s 738 mmHg 69%
    07:00 +2°C° 0 mm 1 m/s 738 mmHg 69%
    08:00 +4°C° 0 mm 1 m/s 738 mmHg 67%
    09:00 +6°C° 0 mm 1 m/s 739 mmHg 66%
    10:00 +8°C° 0 mm 1 m/s 739 mmHg 64%
    11:00 +9°C° 0 mm 1 m/s 738 mmHg 62%
    12:00 +10°C° 0 mm 1 m/s 738 mmHg 60%
    13:00 +10°C° 0 mm 1 m/s 738 mmHg 58%
    14:00 +10°C° 0 mm 1 m/s 737 mmHg 60%
    15:00 +8°C° 0 mm 0 m/s 737 mmHg 62%
    16:00 +7°C° 0 mm 0 m/s 737 mmHg 63%
    17:00 +7°C° 0 mm 1 m/s 737 mmHg 63%
    18:00 +6°C° 0 mm 1 m/s 737 mmHg 63%
    19:00 +5°C° 0 mm 1 m/s 737 mmHg 63%
    20:00 +5°C° 0 mm 1 m/s 737 mmHg 63%
    21:00 +4°C° 0 mm 2 m/s 737 mmHg 62%
    22:00 +3°C° 0 mm 2 m/s 737 mmHg 62%
    23:00 +3°C° 0 mm 2 m/s 737 mmHg 63%

    Amanhã, 18 Janeiro, Sexta-feira

    Tempo Temperatura Precipitação Vento Pressão Humidade
    00:00 +3°C° 0 mm 2 m/s 737 mmHg 64%
    01:00 +4°C° 0 mm 2 m/s 737 mmHg 65%
    02:00 +4°C° 0 mm 2 m/s 736 mmHg 68%
    03:00 +4°C° 0 mm 2 m/s 736 mmHg 70%
    04:00 +4°C° 0 mm 2 m/s 736 mmHg 72%
    05:00 +5°C° 0.2 mm 2 m/s 736 mmHg 74%
    06:00 +5°C° 0.2 mm 2 m/s 736 mmHg 77%
    07:00 +6°C° 0.2 mm 2 m/s 736 mmHg 80%
    08:00 +6°C° 0.3 mm 2 m/s 736 mmHg 80%
    09:00 +7°C° 0.3 mm 2 m/s 736 mmHg 81%
    10:00 +8°C° 0.3 mm 2 m/s 736 mmHg 81%
    11:00 +8°C° 0.1 mm 2 m/s 736 mmHg 80%
    12:00 +9°C° 0.1 mm 2 m/s 736 mmHg 79%
    13:00 +10°C° 0.1 mm 2 m/s 735 mmHg 78%
    14:00 +9°C° 0.2 mm 2 m/s 735 mmHg 80%
    15:00 +9°C° 0.2 mm 2 m/s 735 mmHg 82%
    16:00 +8°C° 0.2 mm 2 m/s 735 mmHg 83%
    17:00 +7°C° 0.1 mm 2 m/s 735 mmHg 84%
    18:00 +7°C° 0.1 mm 2 m/s 736 mmHg 84%
    19:00 +7°C° 0.1 mm 2 m/s 736 mmHg 84%
    20:00 +6°C° 0 mm 2 m/s 736 mmHg 84%
    21:00 +6°C° 0 mm 2 m/s 736 mmHg 84%
    22:00 +6°C° 0 mm 2 m/s 736 mmHg 83%
    23:00 +6°C° 0 mm 2 m/s 736 mmHg 83%

    Depois de amanhã, 19 Janeiro, Sábado

    Tempo Temperatura Precipitação Vento Pressão Humidade
    00:00 +6°C° 0 mm 2 m/s 736 mmHg 83%
    01:00 +6°C° 0 mm 2 m/s 736 mmHg 84%
    02:00 +6°C° 0 mm 2 m/s 736 mmHg 83%
    03:00 +5°C° 0 mm 2 m/s 736 mmHg 83%
    04:00 +5°C° 0 mm 2 m/s 735 mmHg 83%
    05:00 +5°C° 0 mm 2 m/s 736 mmHg 82%
    06:00 +5°C° 0 mm 2 m/s 736 mmHg 81%
    07:00 +5°C° 0 mm 2 m/s 736 mmHg 80%
    08:00 +6°C° 0 mm 2 m/s 736 mmHg 78%
    09:00 +8°C° 0 mm 2 m/s 736 mmHg 76%
    10:00 +9°C° 0 mm 2 m/s 736 mmHg 74%
    11:00 +10°C° 0 mm 2 m/s 736 mmHg 72%
    12:00 +12°C° 0 mm 2 m/s 735 mmHg 71%
    13:00 +12°C° 0 mm 2 m/s 735 mmHg 70%
    14:00 +12°C° 0.2 mm 2 m/s 735 mmHg 74%
    15:00 +10°C° 0.2 mm 2 m/s 734 mmHg 78%
    16:00 +9°C° 0.2 mm 2 m/s 734 mmHg 83%
    17:00 +8°C° 0.3 mm 2 m/s 734 mmHg 83%
    18:00 +8°C° 0.3 mm 2 m/s 734 mmHg 83%
    19:00 +7°C° 0.3 mm 2 m/s 734 mmHg 83%
    20:00 +7°C° 0.2 mm 2 m/s 734 mmHg 83%
    21:00 +7°C° 0.2 mm 2 m/s 734 mmHg 83%
    22:00 +7°C° 0.2 mm 2 m/s 734 mmHg 82%
    23:00 +7°C° 0.1 mm 2 m/s 734 mmHg 82%

    20 Janeiro, Domingo

    Tempo Temperatura Precipitação Vento Pressão Humidade
    00:00 +6°C° 0.1 mm 2 m/s 734 mmHg 82%
    01:00 +6°C° 0.1 mm 2 m/s 734 mmHg 82%
    02:00 +6°C° 0 mm 2 m/s 733 mmHg 82%
    03:00 +6°C° 0 mm 2 m/s 733 mmHg 82%
    04:00 +6°C° 0 mm 2 m/s 733 mmHg 82%
    05:00 +5°C° 0 mm 2 m/s 733 mmHg 82%
    06:00 +5°C° 0 mm 2 m/s 733 mmHg 82%
    07:00 +5°C° 0 mm 2 m/s 733 mmHg 82%
    08:00 +6°C° 0 mm 2 m/s 733 mmHg 80%
    09:00 +8°C° 0 mm 2 m/s 734 mmHg 77%
    10:00 +10°C° 0 mm 1 m/s 734 mmHg 75%
    11:00 +10°C° 0.3 mm 2 m/s 734 mmHg 75%
    12:00 +10°C° 0.3 mm 2 m/s 734 mmHg 75%
    13:00 +10°C° 0.3 mm 2 m/s 734 mmHg 75%
    14:00 +10°C° 0.3 mm 2 m/s 734 mmHg 78%
    15:00 +10°C° 0.3 mm 1 m/s 733 mmHg 81%
    16:00 +10°C° 0.3 mm 1 m/s 733 mmHg 85%
    17:00 +9°C° 0 mm 1 m/s 734 mmHg 87%
    18:00 +8°C° 0 mm 1 m/s 734 mmHg 89%
    19:00 +7°C° 0 mm 1 m/s 734 mmHg 91%
    20:00 +7°C° 0 mm 1 m/s 735 mmHg 91%
    21:00 +7°C° 0 mm 1 m/s 735 mmHg 90%
    22:00 +6°C° 0 mm 1 m/s 735 mmHg 90%
    23:00 +6°C° 0 mm 1 m/s 735 mmHg 88%

    21 Janeiro, Segunda-feira

    Tempo Temperatura Precipitação Vento Pressão Humidade
    00:00 +6°C° 0 mm 1 m/s 735 mmHg 87%
    01:00 +6°C° 0 mm 1 m/s 735 mmHg 85%
    02:00 +6°C° 0 mm 1 m/s 735 mmHg 84%
    03:00 +5°C° 0 mm 1 m/s 735 mmHg 82%
    04:00 +4°C° 0 mm 2 m/s 735 mmHg 81%
    05:00 +4°C° 0 mm 2 m/s 735 mmHg 80%
    06:00 +4°C° 0 mm 2 m/s 735 mmHg 79%
    07:00 +4°C° 0 mm 2 m/s 735 mmHg 78%
    08:00 +6°C° 0 mm 2 m/s 735 mmHg 74%
    09:00 +8°C° 0 mm 2 m/s 735 mmHg 70%
    10:00 +9°C° 0 mm 2 m/s 736 mmHg 65%
    11:00 +10°C° 0 mm 2 m/s 735 mmHg 62%
    12:00 +12°C° 0 mm 2 m/s 735 mmHg 58%
    13:00 +13°C° 0 mm 2 m/s 735 mmHg 54%
    14:00 +12°C° 0 mm 1 m/s 734 mmHg 60%
    15:00 +11°C° 0 mm 1 m/s 734 mmHg 65%
    16:00 +11°C° 0 mm 1 m/s 734 mmHg 71%
    17:00 +9°C° 0.1 mm 2 m/s 734 mmHg 73%
    18:00 +8°C° 0.1 mm 2 m/s 734 mmHg 75%
    19:00 +7°C° 0.1 mm 2 m/s 734 mmHg 77%
    20:00 +7°C° 0 mm 2 m/s 734 mmHg 77%
    21:00 +7°C° 0 mm 3 m/s 734 mmHg 77%
    22:00 +5°C° 0 mm 3 m/s 734 mmHg 77%
    23:00 +5°C° 0.1 mm 3 m/s 734 mmHg 77%

    22 Janeiro, Terça-feira

    Tempo Temperatura Precipitação Vento Pressão Humidade
    00:00 +5°C° 0.1 mm 3 m/s 733 mmHg 78%
    01:00 +5°C° 0.1 mm 3 m/s 733 mmHg 78%
    02:00 +5°C° 0 mm 3 m/s 732 mmHg 79%
    03:00 +5°C° 0 mm 3 m/s 732 mmHg 79%
    04:00 +5°C° 0 mm 4 m/s 731 mmHg 80%
    05:00 +5°C° 0.4 mm 4 m/s 731 mmHg 80%
    06:00 +5°C° 0.4 mm 3 m/s 731 mmHg 80%
    07:00 +5°C° 0.4 mm 3 m/s 731 mmHg 81%
    08:00 +6°C° 1 mm 4 m/s 731 mmHg 81%
    09:00 +6°C° 1 mm 4 m/s 730 mmHg 80%
    10:00 +7°C° 1 mm 4 m/s 730 mmHg 80%
    11:00 +7°C° 0.4 mm 4 m/s 730 mmHg 78%
    12:00 +8°C° 0.4 mm 4 m/s 729 mmHg 77%
    13:00 +10°C° 0.4 mm 4 m/s 729 mmHg 75%
    14:00 +9°C° 0.8 mm 3 m/s 729 mmHg 79%
    15:00 +9°C° 0.8 mm 2 m/s 728 mmHg 83%
    16:00 +8°C° 0.8 mm 2 m/s 728 mmHg 86%
    17:00 +8°C° 0.5 mm 2 m/s 728 mmHg 88%
    18:00 +8°C° 0.5 mm 2 m/s 728 mmHg 89%
    19:00 +7°C° 0.5 mm 2 m/s 728 mmHg 91%
    20:00 +7°C° 0.4 mm 2 m/s 728 mmHg 91%
    21:00 +7°C° 0.4 mm 2 m/s 728 mmHg 91%
    22:00 +7°C° 0.4 mm 2 m/s 728 mmHg 91%
    23:00 +6°C° 0.7 mm 2 m/s 727 mmHg 91%
    Mostrar mais